{"data":{"norad_id":66997,"epoch":"2026-09-20T11:07:02.404992Z","epoch_age_seconds":115173,"freshness":"FRESH","line1":"1 66997U 25292E   26263.46322228  .00001809  00000+0  12492-3 0  9993","line2":"2 66997  97.6262 338.3732 0015393  43.7017 316.5426 15.06945609 42786","mean_motion":15.06945609,"eccentricity":0.0015393,"inclination_deg":97.6262,"raan_deg":338.3732,"arg_perigee_deg":43.7017,"mean_anomaly_deg":316.5426,"bstar":0.00012492,"rev_number":4278,"period_min":95.557529840481,"perigee_km":534.88223371974,"apogee_km":556.19746526859,"semimajor_km":6923.6768494942,"source":"CELESTRAK","updated_at":"2026-09-21T09:00:16.365772Z"}}